EW0690 Bologna IT current weather conditions

sailwx.info

Wind from 295 at 0 knots gusting 6

Air temperature 6.7° C
Dewpoint 3.8° C

Last reported at 2019-Dec-07 08:46 UTC.
Time now 2019-Dec-07 09:29 UTC

Location: N 44°29' E 011°22'.
View on Google Maps.

See reports from other nearby stations

  
Tides and Currents Weather Stations Pressure Air Temp Water Temp Dewpoint Dewpoint Depression Visibility Wind Speed Wind Dir Waves Ship Positions
date/time (UTC)wind fromknots sea level pressurealtimeterstation pressurevisibilityair tempwater tempwave heightnotes
2019-Dec-07 09:04 314 1 gusting 6 6.7
2019-Dec-07 08:46 295 0 gusting 6 6.7
2019-Dec-07 08:33 263 0 gusting 3 6.1
2019-Dec-07 08:16 263 2 gusting 3 5.6
2019-Dec-07 08:01 256 5.0
2019-Dec-07 07:46 193 5.0
2019-Dec-07 07:32 193 5.0
2019-Dec-07 07:16 266 4.4
2019-Dec-07 07:01 267 3.9
2019-Dec-07 06:46 267 3.9
2019-Dec-07 06:31 265 3.9
2019-Dec-07 06:16 266 3.9
2019-Dec-07 06:01 188 3.9
2019-Dec-07 05:46 255 0 gusting 3 3.9
2019-Dec-07 05:31 257 3.9
2019-Dec-07 05:16 257 3.9
2019-Dec-07 05:01 257 0 gusting 3 4.4
2019-Dec-07 04:46 279 3.9
2019-Dec-07 04:31 267 3.9
2019-Dec-07 04:16 149 3.9
2019-Dec-07 04:00 257 4.4
2019-Dec-07 03:46 257 4.4
2019-Dec-07 03:31 263 4.4
2019-Dec-07 03:15 279 5.0
2019-Dec-07 03:00 257 5.0
2019-Dec-07 02:45 260 0 gusting 1 5.0
2019-Dec-07 02:30 278 5.6
2019-Dec-07 02:15 277 5.6
2019-Dec-07 02:00 273 5.6
2019-Dec-07 01:45 264 0 gusting 2 5.6
2019-Dec-07 01:30 279 5.6
2019-Dec-07 01:15 269 1 gusting 5 5.6
2019-Dec-07 01:00 263 3 gusting 6 5.6
2019-Dec-07 00:45 289 1 gusting 5 5.6
2019-Dec-07 00:30 263 1 gusting 3 5.6
2019-Dec-07 00:15 304 0 gusting 3 6.1
2019-Dec-07 00:00 255 6.1
2019-Dec-06 23:47 269 1 gusting 2 6.1
2019-Dec-06 23:32 276 1 gusting 4 6.1
2019-Dec-06 23:17 282 6.1
2019-Dec-06 23:01 260 1 gusting 2 6.1
2019-Dec-06 22:46 270 0 gusting 3 6.1
2019-Dec-06 22:31 264 0 gusting 2 6.1
2019-Dec-06 22:17 278 6.1
2019-Dec-06 22:02 272 6.1
2019-Dec-06 21:46 272 6.1
2019-Dec-06 21:31 277 6.1
2019-Dec-06 21:17 277 0 gusting 1 6.1
2019-Dec-06 21:02 277 0 gusting 2 6.1
2019-Dec-06 20:46 276 0 gusting 2 5.6
2019-Dec-06 20:32 250 5.6
2019-Dec-06 20:16 271 0 gusting 1 5.6
2019-Dec-06 20:01 270 5.6
2019-Dec-06 19:46 253 5.6
2019-Dec-06 19:31 219 5.6
2019-Dec-06 19:16 212 6.1
2019-Dec-06 19:01 211 6.7
2019-Dec-06 18:46 211 6.7
2019-Dec-06 18:31 211 6.7
2019-Dec-06 18:16 224 6.7
2019-Dec-06 18:01 219 6.7
2019-Dec-06 17:45 221 6.7
2019-Dec-06 17:31 264 6.7
2019-Dec-06 17:17 262 0 gusting 2 6.7
2019-Dec-06 17:00 240 0 gusting 1 6.7
2019-Dec-06 16:45 262 6.7
2019-Dec-06 16:31 233 0 gusting 1 6.7
2019-Dec-06 16:15 231 7.2
2019-Dec-06 16:01 281 7.2
2019-Dec-06 15:45 346 7.2
2019-Dec-06 15:31 293 7.2
2019-Dec-06 15:16 354 7.8
2019-Dec-06 15:00 302 0 gusting 1 7.8
2019-Dec-06 14:45 348 7.8
2019-Dec-06 14:31 308 7.8
2019-Dec-06 14:15 006 1 gusting 3 8.3
2019-Dec-06 14:00 346 8.3
2019-Dec-06 13:45 334 0 gusting 3 7.8
2019-Dec-06 13:31 350 2 gusting 4 8.3
2019-Dec-06 13:15 343 0 gusting 5 8.3
2019-Dec-06 13:00 356 1 gusting 6 8.3
2019-Dec-06 12:45 259 1 gusting 4 8.3
2019-Dec-06 12:30 298 2 gusting 4 8.3
2019-Dec-06 12:15 322 1 gusting 4 8.3
2019-Dec-06 12:00 293 1 gusting 5 7.8
2019-Dec-06 11:45 296 1 gusting 4 7.2
2019-Dec-06 11:32 262 3 gusting 6 7.2
2019-Dec-06 11:16 290 1 gusting 5 7.2
2019-Dec-06 11:01 257 2 gusting 5 6.7
2019-Dec-06 10:46 281 3 gusting 6 6.7
2019-Dec-06 10:45 307 3 gusting 6 6.7
2019-Dec-06 10:31 276 2 gusting 6 6.7
2019-Dec-06 10:15 271 4 gusting 6 6.1
2019-Dec-06 10:00 290 2 gusting 6 6.1
2019-Dec-06 09:46 295 3 gusting 6 6.1
2019-Dec-06 09:30 311 5.6
2019-Dec-06 09:15 290 2 gusting 5 5.6
2019-Dec-06 09:00 283 5.6
2019-Dec-06 08:45 304 5.0
2019-Dec-06 08:30 284 1 gusting 5 5.0
2019-Dec-06 08:15 305 3 gusting 5 4.4
2019-Dec-06 08:00 256 0 gusting 3 4.4
2019-Dec-06 07:45 284 2 gusting 4 4.4
2019-Dec-06 07:30 254 1 gusting 3 3.9
2019-Dec-06 07:15 305 0 gusting 3 3.9
2019-Dec-06 07:00 257 0 gusting 3 3.3
2019-Dec-06 06:45 277 0 gusting 2 3.3
2019-Dec-06 06:30 301 3.9
2019-Dec-06 06:15 308 0 gusting 3 3.9
2019-Dec-06 06:00 281 1 gusting 4 3.9
2019-Dec-06 05:45 304 1 gusting 4 3.9
2019-Dec-06 05:32 274 0 gusting 2 4.4
2019-Dec-06 05:17 253 0 gusting 1 4.4
2019-Dec-06 05:01 264 0 gusting 2 4.4
2019-Dec-06 04:47 283 1 gusting 2 4.4
2019-Dec-06 04:31 271 4.4
2019-Dec-06 04:19 263 4.4
2019-Dec-06 04:02 152 3.9
2019-Dec-06 03:46 152 3.9
2019-Dec-06 03:32 252 4.4
2019-Dec-06 03:16 276 2 gusting 4 3.9
2019-Dec-06 03:01 271 0 gusting 2 3.9
2019-Dec-06 02:46 262 3.9
2019-Dec-06 02:31 262 3.9
2019-Dec-06 02:15 256 1 gusting 4 3.3
2019-Dec-06 02:01 255 0 gusting 1 3.3
2019-Dec-06 01:46 267 3.3
2019-Dec-06 01:31 263 3.3
2019-Dec-06 01:16 263 3.3
2019-Dec-06 01:00 263 2.8
2019-Dec-06 00:46 264 2.8
2019-Dec-06 00:31 263 2.8
2019-Dec-06 00:15 263 2.8
2019-Dec-06 00:01 277 2.8
2019-Dec-05 23:46 269 2.8
2019-Dec-05 23:31 263 2.8
2019-Dec-05 23:16 262 2.8
2019-Dec-05 23:00 253 3.3
2019-Dec-05 22:46 269 3.3
2019-Dec-05 22:30 271 3.3
2019-Dec-05 22:15 271 3.3
2019-Dec-05 22:01 231 2.8
2019-Dec-05 21:46 231 2.8
2019-Dec-05 21:30 231 2.8
2019-Dec-05 21:15 264 2.8
2019-Dec-05 21:00 264 2.8
2019-Dec-05 20:45 266 2.8
2019-Dec-05 20:30 267 2.8
2019-Dec-05 20:15 231 2.8
2019-Dec-05 20:00 231 2.8
2019-Dec-05 19:45 231 2.8
2019-Dec-05 19:30 229 2.8
2019-Dec-05 19:15 229 2.8
2019-Dec-05 19:00 229 2.8
2019-Dec-05 18:45 229 2.8
2019-Dec-05 18:30 229 2.8
2019-Dec-05 18:15 229 2.8
2019-Dec-05 18:00 229 3.3
2019-Dec-05 17:45 228 3.3
2019-Dec-05 17:30 250 0 gusting 1 3.3
2019-Dec-05 17:15 248 0 gusting 1 3.3
2019-Dec-05 17:00 231 3.9
2019-Dec-05 16:45 257 3.9
2019-Dec-05 16:30 249 3.9
2019-Dec-05 16:15 233 3.9
2019-Dec-05 16:00 250 4.4
2019-Dec-05 15:45 219 5.0
2019-Dec-05 15:30 219 5.6
2019-Dec-05 15:15 219 6.1
2019-Dec-05 15:00 235 6.7
2019-Dec-05 14:45 257 6.7
2019-Dec-05 14:30 264 0 gusting 2 7.2
2019-Dec-05 14:15 229 6.7
2019-Dec-05 14:00 276 0 gusting 2 7.2
2019-Dec-05 13:45 269 0 gusting 3 7.2
2019-Dec-05 13:30 266 2 gusting 5 7.2
2019-Dec-05 13:15 271 7.2
2019-Dec-05 13:00 250 1 gusting 3 7.2
2019-Dec-05 12:32 338 1 gusting 4 6.7
2019-Dec-05 12:16 290 2 gusting 6 6.7
2019-Dec-05 12:01 271 1 gusting 5 6.7
2019-Dec-05 11:47 278 0 gusting 4 6.7
2019-Dec-05 11:31 308 1 gusting 4 6.7
2019-Dec-05 11:16 358 1 gusting 4 6.7
2019-Dec-05 11:01 293 2 gusting 5 6.1
2019-Dec-05 10:46 298 2 gusting 5 6.1
2019-Dec-05 10:31 282 2 gusting 5 5.6
2019-Dec-05 10:16 314 5.6
2019-Dec-05 10:01 287 2 gusting 4 5.6
2019-Dec-05 09:47 297 0 gusting 4 5.6
2019-Dec-05 09:31 255 2 gusting 5 5.6
2019-Dec-05 09:15 311 3 gusting 5 5.6
2019-Dec-05 09:00 262 2 gusting 3 5.0